Terminal Aerodrome Forecast
Issued by NWS

Home | Current Version | Previous Version | Text Only | Print | Product List | Glossary On
Versions: 1 2 3 4 5 6 7 8 9 10 11 12 13 14 15 16 17 18 19 20 21 22 23 24 25 26 27 28 29 30 31 32 33
000
FTAK31 PANC 030523
TAFADU
TAF
PADU 030523Z 0306/0406 14018G30KT P6SM -RA SCT007 OVC016
      TEMPO 0306/0310 6SM -RA BR SCT007 BKN012
     FM031700 09015G22KT 3SM -RA BR BKN007 OVC012
     FM040200 08009KT 4SM -RA BR SCT007 OVC012=

USA.gov is the U.S. government's official web portal to all federal, state and local government web resources and services.